Hays, KS

12:19 AM CST on December 12, 2019 (GMT -0600)
Hays Regional

Weather History for KHYS - November, 2019

Change the Weather History Date:

Thursday, November 14, 2019

  Actual Average Record
Temperature  
Mean Temperature 40 °F -  
Max Temperature 53 °F 53 °F 71 °F (2001)
Min Temperature 28 °F 30 °F 12 °F (2000)
Degree Days  
Heating Degree Days 24    
Moisture  
Dew Point 29 °F    
Average Humidity 69    
Maximum Humidity 92    
Minimum Humidity 41    
Precipitation  
Precipitation 0.00 in - - ()
Sea Level Pressure  
Sea Level Pressure 30.36 in    
Wind  
Wind Speed 6 mph (NW)    
Max Wind Speed 12 mph    
Max Gust Speed -    
Visibility 10 miles    
Events      
Averages and records for this station are not official NWS values.
T = Trace of Precipitation, MM = Missing Value Source: NWS Daily Summary

Daily Weather History Graph

Daily Weather History Graph

Search for Another Location

Airport or City:

Astronomy

Nov. 14, 2019 Rise Set
Actual Time 7:18 AM CST 5:24 PM CST
Civil Twilight 6:49 AM CST 5:52 PM CST
Nautical Twilight 6:17 AM CST 6:24 PM CST
Astronomical Twilight 5:46 AM CST 6:56 PM CST
Moon 7:12 PM CST (11/14) 9:14 AM CST (11/14)
Length of Visible Light 11h 02m
Length of Day
10h 05m
Waning Gibbous, 95% of the Moon is Illuminated
Nov 14
Waning Gibbous
Nov 19
Last Quarter
Nov 26
New
Dec 4
First Quarter
Dec 11
Full

Hourly Weather History & Observations

Time (CST) Temp. Windchill Dew Point Humidity Pressure Visibility Wind Dir Wind Speed Gust Speed Precip Events Conditions
12:56 AM 28.0 °F 20.8 °F 26.1 °F 92% 30.26 in 10.0 mi NW 6.9 mph - N/A   Mostly Cloudy
1:56 AM 33.1 °F 27.7 °F 30.9 °F 92% 30.26 in 10.0 mi NNW 5.8 mph - N/A   Overcast
2:56 AM 34.0 °F 28.0 °F 32.0 °F 92% 30.29 in 10.0 mi NW 6.9 mph - N/A   Overcast
3:56 AM 34.0 °F 28.8 °F 30.0 °F 85% 30.29 in 10.0 mi NW 5.8 mph - N/A   Mostly Cloudy
4:56 AM 33.1 °F 27.7 °F 28.9 °F 85% 30.31 in 10.0 mi WNW 5.8 mph - N/A   Mostly Cloudy
5:56 AM 33.1 °F 27.7 °F 30.9 °F 92% 30.35 in 10.0 mi NW 5.8 mph - N/A   Overcast
6:56 AM 32.0 °F 25.6 °F 28.9 °F 88% 30.38 in 10.0 mi NW 6.9 mph - N/A   Mostly Cloudy
7:56 AM 33.1 °F 27.7 °F 28.9 °F 85% 30.41 in 10.0 mi NW 5.8 mph - N/A   Clear
8:56 AM 37.9 °F 32.7 °F 30.9 °F 76% 30.43 in 10.0 mi NNW 6.9 mph - N/A   Clear
9:56 AM 42.1 °F 36.1 °F 28.9 °F 60% 30.43 in 10.0 mi North 10.4 mph - N/A   Clear
10:56 AM 45.0 °F 39.3 °F 28.9 °F 53% 30.43 in 10.0 mi NNW 11.5 mph - N/A   Clear
12:56 PM 50.0 °F - 28.9 °F 44% 30.40 in 9.0 mi NW 10.4 mph - N/A   Clear
1:56 PM 51.1 °F - 30.0 °F 44% 30.38 in 10.0 mi NNW 10.4 mph - N/A   Clear
2:56 PM 53.1 °F - 30.0 °F 41% 30.35 in 10.0 mi North 5.8 mph - N/A   Clear
3:56 PM 53.1 °F - 30.0 °F 41% 30.35 in 8.0 mi Calm Calm - N/A   Clear
4:56 PM 52.0 °F - 30.0 °F 43% 30.35 in 10.0 mi Calm Calm - N/A   Clear
5:56 PM 46.9 °F - 28.9 °F 50% 30.37 in 10.0 mi South 4.6 mph - N/A   Clear
6:56 PM 37.9 °F 33.5 °F 27.0 °F 65% 30.39 in 10.0 mi SSE 5.8 mph - N/A   Clear
8:56 PM 36.0 °F 31.1 °F 27.0 °F 70% 30.40 in 10.0 mi South 5.8 mph - N/A   Clear
9:56 PM 34.0 °F - 26.1 °F 73% 30.40 in 10.0 mi Calm Calm - N/A   Clear
10:56 PM 34.0 °F 28.0 °F 27.0 °F 75% 30.39 in 10.0 mi SSW 6.9 mph - N/A   Clear
11:56 PM 33.1 °F 30.0 °F 26.1 °F 75% 30.39 in 10.0 mi SW 3.5 mph - N/A   Clear